• In Russia
  • List of Countries
  • For 7 days
  • Water Temperature
  • Satellite Maps
  • Weather Map
  • Weather Widgets
  • user-avatar
    Login

    Hourly Weather Santiago de Compostela

    Today, 14 November, Wednesday

    Time Temperature Precipitation Wind Pressure Humidity
    00:00 +9°C° 0 mm 1 mps 745 mmHg 91%
    01:00 +9°C° 0 mm 1 mps 744 mmHg 92%
    02:00 +9°C° 0 mm 1 mps 744 mmHg 93%
    03:00 +9°C° 0 mm 1 mps 743 mmHg 93%
    04:00 +9°C° 0 mm 1 mps 743 mmHg 93%
    05:00 +8°C° 0 mm 2 mps 743 mmHg 93%
    06:00 +9°C° 0 mm 2 mps 743 mmHg 89%
    07:00 +10°C° 0 mm 2 mps 743 mmHg 86%
    08:00 +12°C° 0 mm 2 mps 743 mmHg 82%
    09:00 +14°C° 0 mm 2 mps 743 mmHg 75%
    10:00 +16°C° 0 mm 2 mps 742 mmHg 68%
    11:00 +19°C° 0 mm 2 mps 742 mmHg 61%
    12:00 +20°C° 0 mm 1 mps 742 mmHg 61%
    13:00 +20°C° 0 mm 1 mps 741 mmHg 62%
    14:00 +20°C° 0 mm 1 mps 741 mmHg 62%
    15:00 +18°C° 0 mm 1 mps 740 mmHg 71%
    16:00 +15°C° 0 mm 1 mps 740 mmHg 80%
    17:00 +13°C° 0 mm 1 mps 740 mmHg 89%
    18:00 +13°C° 0 mm 1 mps 740 mmHg 90%
    19:00 +12°C° 0 mm 1 mps 740 mmHg 91%
    20:00 +12°C° 0 mm 1 mps 740 mmHg 92%
    21:00 +12°C° 0 mm 1 mps 740 mmHg 92%
    22:00 +11°C° 0 mm 1 mps 740 mmHg 92%
    23:00 +11°C° 0 mm 1 mps 739 mmHg 92%

    Tomorrow, 15 November, Thursday

    Time Temperature Precipitation Wind Pressure Humidity
    00:00 +11°C° 0 mm 1 mps 739 mmHg 92%
    01:00 +11°C° 0 mm 1 mps 739 mmHg 92%
    02:00 +11°C° 0 mm 1 mps 739 mmHg 92%
    03:00 +11°C° 0 mm 1 mps 739 mmHg 91%
    04:00 +11°C° 0 mm 1 mps 739 mmHg 91%
    05:00 +11°C° 0 mm 1 mps 739 mmHg 91%
    06:00 +12°C° 0 mm 1 mps 739 mmHg 88%
    07:00 +13°C° 0 mm 1 mps 740 mmHg 85%
    08:00 +13°C° 0 mm 1 mps 740 mmHg 82%
    09:00 +15°C° 0 mm 1 mps 740 mmHg 76%
    10:00 +18°C° 0 mm 1 mps 741 mmHg 70%
    11:00 +20°C° 0 mm 1 mps 741 mmHg 64%
    12:00 +20°C° 0.1 mm 1 mps 741 mmHg 67%
    13:00 +20°C° 0.1 mm 1 mps 740 mmHg 70%
    14:00 +20°C° 0.1 mm 1 mps 740 mmHg 73%
    15:00 +18°C° 0.2 mm 1 mps 740 mmHg 80%
    16:00 +15°C° 0.2 mm 1 mps 741 mmHg 87%
    17:00 +14°C° 0.2 mm 1 mps 741 mmHg 94%
    18:00 +13°C° 0 mm 1 mps 741 mmHg 94%
    19:00 +13°C° 0 mm 1 mps 741 mmHg 95%
    20:00 +13°C° 0 mm 1 mps 741 mmHg 95%
    21:00 +12°C° 0 mm 1 mps 741 mmHg 95%
    22:00 +12°C° 0 mm 1 mps 741 mmHg 95%
    23:00 +12°C° 0 mm 2 mps 741 mmHg 95%

    Day after tomorrow, 16 November, Friday

    Time Temperature Precipitation Wind Pressure Humidity
    00:00 +12°C° 0 mm 2 mps 741 mmHg 94%
    01:00 +11°C° 0 mm 1 mps 741 mmHg 94%
    02:00 +11°C° 0 mm 1 mps 741 mmHg 94%
    03:00 +11°C° 0 mm 1 mps 741 mmHg 94%
    04:00 +10°C° 0 mm 2 mps 740 mmHg 94%
    05:00 +10°C° 0 mm 2 mps 740 mmHg 94%
    06:00 +10°C° 0 mm 2 mps 740 mmHg 92%
    07:00 +12°C° 0 mm 2 mps 741 mmHg 90%
    08:00 +13°C° 0 mm 2 mps 741 mmHg 88%
    09:00 +15°C° 0 mm 2 mps 741 mmHg 81%
    10:00 +17°C° 0 mm 2 mps 740 mmHg 74%
    11:00 +19°C° 0 mm 2 mps 740 mmHg 67%
    12:00 +19°C° 0 mm 2 mps 740 mmHg 66%
    13:00 +19°C° 0 mm 2 mps 740 mmHg 64%
    14:00 +20°C° 0 mm 2 mps 739 mmHg 62%
    15:00 +19°C° 0 mm 1 mps 739 mmHg 71%
    16:00 +16°C° 0 mm 1 mps 739 mmHg 80%
    17:00 +13°C° 0 mm 1 mps 739 mmHg 89%
    18:00 +13°C° 0 mm 1 mps 739 mmHg 90%
    19:00 +13°C° 0 mm 1 mps 739 mmHg 91%
    20:00 +12°C° 0 mm 2 mps 739 mmHg 93%
    21:00 +12°C° 0 mm 2 mps 739 mmHg 93%
    22:00 +12°C° 0 mm 2 mps 738 mmHg 93%
    23:00 +12°C° 0 mm 2 mps 738 mmHg 93%

    17 November, Saturday

    Time Temperature Precipitation Wind Pressure Humidity
    00:00 +12°C° 0 mm 2 mps 738 mmHg 92%
    01:00 +10°C° 0 mm 2 mps 737 mmHg 92%
    02:00 +10°C° 0 mm 2 mps 737 mmHg 91%
    03:00 +10°C° 0 mm 2 mps 737 mmHg 90%
    04:00 +10°C° 0 mm 2 mps 737 mmHg 90%
    05:00 +10°C° 0 mm 2 mps 736 mmHg 90%
    06:00 +12°C° 0 mm 2 mps 737 mmHg 87%
    07:00 +13°C° 0 mm 2 mps 737 mmHg 84%
    08:00 +14°C° 0 mm 2 mps 737 mmHg 81%
    09:00 +15°C° 0 mm 2 mps 737 mmHg 74%
    10:00 +17°C° 0 mm 2 mps 737 mmHg 68%
    11:00 +19°C° 0 mm 2 mps 736 mmHg 62%
    12:00 +19°C° 0 mm 2 mps 736 mmHg 63%
    13:00 +19°C° 0 mm 2 mps 735 mmHg 65%
    14:00 +20°C° 0 mm 1 mps 735 mmHg 66%
    15:00 +18°C° 0 mm 1 mps 735 mmHg 74%
    16:00 +16°C° 0 mm 1 mps 734 mmHg 81%
    17:00 +14°C° 0 mm 1 mps 734 mmHg 89%
    18:00 +14°C° 0 mm 1 mps 734 mmHg 89%
    19:00 +13°C° 0 mm 2 mps 733 mmHg 89%
    20:00 +13°C° 0 mm 2 mps 733 mmHg 89%
    21:00 +13°C° 0 mm 2 mps 733 mmHg 89%
    22:00 +12°C° 0 mm 2 mps 732 mmHg 88%
    23:00 +12°C° 0 mm 2 mps 732 mmHg 87%

    18 November, Sunday

    Time Temperature Precipitation Wind Pressure Humidity
    00:00 +12°C° 0 mm 2 mps 731 mmHg 88%
    01:00 +12°C° 0 mm 2 mps 731 mmHg 88%
    02:00 +10°C° 0 mm 2 mps 730 mmHg 88%
    03:00 +10°C° 0 mm 2 mps 730 mmHg 89%
    04:00 +10°C° 0 mm 2 mps 730 mmHg 89%
    05:00 +10°C° 0 mm 2 mps 729 mmHg 89%
    06:00 +12°C° 0 mm 2 mps 729 mmHg 86%
    07:00 +12°C° 0 mm 2 mps 729 mmHg 83%
    08:00 +13°C° 0 mm 2 mps 729 mmHg 80%
    09:00 +14°C° 0 mm 2 mps 729 mmHg 77%
    10:00 +15°C° 0 mm 1 mps 729 mmHg 73%
    11:00 +18°C° 0 mm 1 mps 729 mmHg 69%
    12:00 +18°C° 0.2 mm 1 mps 728 mmHg 71%
    13:00 +18°C° 0.2 mm 1 mps 728 mmHg 73%
    14:00 +18°C° 0.2 mm 1 mps 727 mmHg 75%
    15:00 +16°C° 0.2 mm 1 mps 727 mmHg 80%
    16:00 +15°C° 0.2 mm 1 mps 727 mmHg 85%
    17:00 +13°C° 0.2 mm 1 mps 727 mmHg 90%
    18:00 +13°C° 0 mm 1 mps 728 mmHg 91%
    19:00 +12°C° 0 mm 1 mps 728 mmHg 93%
    20:00 +12°C° 0 mm 1 mps 728 mmHg 94%
    21:00 +12°C° 0 mm 2 mps 729 mmHg 95%
    22:00 +12°C° 0 mm 2 mps 729 mmHg 95%
    23:00 +10°C° 0 mm 2 mps 729 mmHg 96%

    19 November, Monday

    Time Temperature Precipitation Wind Pressure Humidity
    00:00 +10°C° 0 mm 2 mps 729 mmHg 96%
    01:00 +10°C° 0 mm 2 mps 729 mmHg 96%
    02:00 +10°C° 0 mm 2 mps 729 mmHg 96%
    03:00 +9°C° 0 mm 2 mps 730 mmHg 96%
    04:00 +9°C° 0 mm 2 mps 730 mmHg 96%
    05:00 +9°C° 0 mm 2 mps 730 mmHg 97%
    06:00 +9°C° 0 mm 2 mps 730 mmHg 95%
    07:00 +9°C° 0 mm 2 mps 731 mmHg 94%
    08:00 +10°C° 0 mm 2 mps 731 mmHg 92%
    09:00 +12°C° 0 mm 2 mps 732 mmHg 83%
    10:00 +14°C° 0 mm 2 mps 732 mmHg 75%
    11:00 +15°C° 0 mm 2 mps 732 mmHg 66%
    12:00 +16°C° 0 mm 2 mps 732 mmHg 63%
    13:00 +16°C° 0 mm 2 mps 732 mmHg 61%
    14:00 +16°C° 0 mm 2 mps 732 mmHg 58%
    15:00 +14°C° 0 mm 1 mps 732 mmHg 67%
    16:00 +12°C° 0 mm 1 mps 732 mmHg 75%
    17:00 +11°C° 0 mm 1 mps 732 mmHg 84%
    18:00 +10°C° 0 mm 1 mps 733 mmHg 86%
    19:00 +10°C° 0 mm 1 mps 733 mmHg 87%
    20:00 +8°C° 0 mm 2 mps 733 mmHg 89%
    21:00 +8°C° 0 mm 2 mps 733 mmHg 90%
    22:00 +8°C° 0 mm 2 mps 733 mmHg 90%
    23:00 +7°C° 0 mm 2 mps 733 mmHg 90%
    Show more